Dewpoint
26 24 23 23 26 27 29 30 30 30 30 30 30 30 32 31 31 32 31 30 30 30
27 23 21 21 23 27 28 28 28 28 29 28 28 28 31 31 30 31 31 31 30 30
27 22 19 20 22 25 26 26 26 26 28 28 27 28 30 31 30 30 30 31 30 30
25 23 20 19 21 23 24 25 25 25 27 25 27 28 27 27 28 28 29 29 29 30
24 24 20 20 21 23 23 23 24 26 25 26 25 28 26 25 25 26 26 28 28 29
23 19 18 20 21 21 22 22 22 22 24 27 26 26 25 24 23 25 25 27 26 26
20 19 18 19 20 20 20 20 20 21 22 25 24 25 23 24 22 21 24 23 24 25
16 16 18 18 19 20 20 20 20 21 21 22 23 24 22 22 22 19 20 19 20 23
14 15 18 19 19 19 19 20 21 22 23 23 23 22 20 17 16 15 16 16 17 18
13 15 17 18 19 19 20 20 20 20 20 20 21 22 20 19 15 14 14 14 15 15
13 15 17 17 18 19 20 20 19 19 18 18 19 21 20 19 14 13 13 13 15 15
13 14 16 17 17 18 18 17 16 16 16 16 17 20 20 18 14 12 12 12 14 15
13 13 15 15 16 16 16 14 14 14 16 15 16 19 21 19 14 13 13 13 13 16
16 12 14 12 12 13 13 13 13 14 15 15 16 17 19 19 17 14 13 14 13 14
Wind_Speed
19 17 17 18 19 18 19 19 24 24 22 24 24 23 22 19 20 19 19 21 21 18
21 20 19 20 18 18 19 20 22 22 25 23 25 25 23 19 21 19 19 19 21 19
19 20 20 19 21 21 20 21 21 22 23 23 24 26 24 20 20 21 21 20 22 23
18 19 19 19 20 20 20 21 22 23 22 25 24 25 22 22 23 22 22 24 25 24
19 21 19 19 20 20 21 21 21 22 24 23 25 22 23 25 25 22 25 24 26 24
18 18 19 19 19 19 20 21 22 23 24 21 22 22 23 22 24 24 22 22 24 26
17 18 18 18 18 18 19 20 22 23 24 24 25 25 24 22 21 21 22 22 21 26
17 17 17 18 19 18 19 20 21 23 23 25 25 26 25 21 18 21 23 22 22 23
16 16 17 17 18 19 20 20 20 21 21 21 23 35 32 25 18 18 20 23 22 21
17 17 17 18 18 19 19 19 20 21 21 22 25 35 35 31 19 18 19 19 21 20
17 17 17 18 19 19 19 19 19 20 22 23 22 35 35 33 20 18 18 18 22 23
16 17 18 18 19 18 18 18 18 18 20 22 23 32 33 30 21 19 17 16 17 23
15 16 17 17 16 16 15 16 16 18 19 21 24 30 32 30 21 20 18 16 17 23
14 14 15 15 15 17 16 17 18 18 18 21 22 26 31 30 23 21 18 17 19 18
Wind_Direction
7 2 1 4 2 357 354 351 353 352 356 1 1 357 356 357 358 352 356 0 356 337
4 6 3 3 7 360 357 354 351 355 355 3 3 360 355 356 356 352 356 359 4 350
359 4 5 5 7 3 358 0 360 359 359 359 6 1 354 355 358 360 1 358 6 1
6 1 6 8 8 6 2 2 2 2 1 3 1 3 355 357 1 2 3 7 9 3
4 357 4 9 9 7 4 6 4 3 4 9 4 359 358 1 1 5 4 10 12 4
3 5 5 7 8 6 4 7 7 7 2 5 7 3 360 2 3 1 12 6 15 8
8 5 4 5 7 9 9 9 7 7 7 2 12 3 1 358 7 7 5 13 16 14
9 8 6 5 5 6 11 11 8 5 5 5 9 5 3 353 7 8 9 15 18 24
9 9 8 5 7 6 8 8 10 5 3 4 7 4 4 356 8 18 17 12 13 18
11 12 9 7 8 8 8 5 6 7 8 5 12 5 2 351 7 14 17 19 14 15
13 13 9 9 8 7 7 5 2 7 8 7 13 6 6 347 7 10 19 19 21 12
12 15 14 12 7 3 3 4 4 7 7 10 9 10 8 357 7 7 15 18 31 16
13 19 15 8 6 4 6 7 4 8 9 10 8 13 8 7 7 0 6 10 12 29
13 15 14 9 7 8 8 10 9 12 11 9 14 8 8 11 7 359 0 5 6 9